This is the latest recevied weather packets stored in our database for station/object KX4O-13. If no packets are shown the sender has not sent any weather packets the latest 10 day(s).
| Time | Temp. | Humidity | Pressure | Rain* | Wind** | Luminosity | Snow |
|---|---|---|---|---|---|---|---|
| 1778104253 | 20.56° C | 78% | 1007.7 hPa | 0 mm | - | 221 W/m² | - |
| 1778103951 | 20.56° C | 77% | 1007.7 hPa | 0 mm | - | 237 W/m² | - |
| 1778103651 | 20.56° C | 78% | 1007.8 hPa | 0 mm | - | 183 W/m² | - |
| 1778103351 | 20.56° C | 77% | 1007.7 hPa | 0 mm | - | 190 W/m² | - |
| 1778103051 | 20.56° C | 78% | 1007.6 hPa | 0 mm | - | 192 W/m² | - |
| 1778102751 | 20.56° C | 78% | 1007.6 hPa | 0 mm | - | 207 W/m² | - |
| 1778102451 | 20.56° C | 77% | 1007.6 hPa | 0 mm | - | 230 W/m² | - |
| 1778102151 | 20.56° C | 78% | 1007.6 hPa | 0 mm | - | 192 W/m² | - |
| 1778101853 | 20° C | 78% | 1007.6 hPa | 0 mm | - | 199 W/m² | - |
| 1778101551 | 20° C | 78% | 1007.5 hPa | 0 mm | - | 200 W/m² | - |
| 1778101251 | 20° C | 78% | 1007.5 hPa | 0 mm | - | 190 W/m² | - |
| 1778100951 | 20° C | 79% | 1007.5 hPa | 0 mm | - | 193 W/m² | - |
| 1778100651 | 20° C | 79% | 1007.4 hPa | 0 mm | - | 214 W/m² | - |
| 1778100351 | 20° C | 79% | 1007.5 hPa | 0 mm | - | 237 W/m² | - |
| 1778100051 | 20° C | 79% | 1007.4 hPa | 0 mm | - | 251 W/m² | - |
| 1778099751 | 20° C | 79% | 1007.2 hPa | 0 mm | - | 253 W/m² | - |
| 1778099453 | 20° C | 78% | 1007.3 hPa | 0 mm | - | 244 W/m² | - |
| 1778099151 | 20° C | 79% | 1007.3 hPa | 0 mm | - | 239 W/m² | - |
| 1778098851 | 20° C | 79% | 1007.3 hPa | 0 mm | - | 260 W/m² | - |
| 1778098551 | 20° C | 79% | 1007.3 hPa | 0 mm | - | 253 W/m² | - |
| 1778098251 | 20.56° C | 79% | 1007.3 hPa | 0 mm | - | 306 W/m² | - |
| 1778097951 | 20° C | 79% | 1007.3 hPa | 0 mm | - | 304 W/m² | - |
| 1778097651 | 20° C | 79% | 1007.4 hPa | 0 mm | - | 338 W/m² | - |
| 1778097351 | 20° C | 79% | 1007.4 hPa | 0 mm | - | 364 W/m² | - |
| 1778097053 | 20° C | 80% | 1007.3 hPa | 0 mm | - | 316 W/m² | - |
* Rain latest hour (hover to see other rain measurements)
** Current wind speed in m/s (hover to see current wind gust speed)